Find Starlink 35357

NORAD ID: 65799 Int'l Des: 2025-218 Owner: SPXS Country: US Constellation: starlink operational
LEOCIRCULARRETROGRADESSO

現在のビュー

3D地球を読み込み中...

About Starlink 35357

Starlink 35357 (NORAD 65799) is a starlink constellation satellite (v2 mini) launched Sep 26, 2025 by SPXS of US. It operates in LEO, CIRCULAR, RETROGRADE, SSO orbit with a mass of 575.00 kg.

Starlink 35357について

説明を読み込み中...

次回通過

Passes for default location (London). Set your location on the main map for personalized predictions.

高度履歴

Loading altitude history...

軌道要素

1 65799U 25218J 26195.12884823 -.00000663 00000-0 -42048-4 0 9992
2 65799 97.2844 55.5206 0002214 70.1492 289.9974 15.05658081 43999
Epoch: Jul 14, 2026 • Age: 7 hours

現在のステータス

高度 561.6 km
遠地点 / 近地点 N/A
速度 7.59 km/s
衛星直下点 82.39°N, 132.69°W
打ち上げ日 Sep 26, 2025
運用期間 0.7 years
タイプ internet

技術仕様

分類 Payload
質量 575.00 kg
乾燥質量 530.00 kg
総質量 575.00 kg
長さ 0.30 m
直径 4.10 m
スパン 29.00 m
形状 Box + pan
製造者 SPXS
バスタイプ Starlink V2MO
フェーズステータス In Orbit
所有者/国 SPXS/US

Most Searched